Location: Arbon
(43.0005°N, 0.7472°E)
Time: 12:07:46
(UTC+00:00)

Cosmos 2233 Rocket - Pass Details

Date: 22 April 2026
Orbit: 951 x 991 km, 82.9° (Epoch: 16 May)

Event Time Altitude Azimuth Distance (km) Brightness Sun altitude
Exits shadow 23:18:33 61° 353° (N) 1,109 4.4 -33.9°
Drops below altitude 10° 23:23:38 10° 6° (N) 2,732 7.1 -34.1°
Sets 23:26:09 0° 8° (N) 3,677 8.0 -34.1°
